Weather History for George, South Africa

Change the Weather History Date:

Thursday, December 5, 2013

  Actual Average Record
Temperature  
Mean Temperature 62 °F -  
Max Temperature 67 °F 72 °F 91 °F (2011)
Min Temperature 55 °F 57 °F 50 °F (2006)
Degree Days  
Heating Degree Days 3    
Growing Degree Days 12 (Base 50)    
Moisture  
Dew Point 49 °F    
Average Humidity 64    
Maximum Humidity 82    
Minimum Humidity 37    
Precipitation  
Precipitation 0.00 in - - ()
Sea Level Pressure  
Sea Level Pressure 30.23 in    
Wind  
Wind Speed 5 mph ()    
Max Wind Speed 13 mph    
Max Gust Speed -    
Visibility 7.4 miles    
Events Rain    
Averages and records for this station are not official NWS values.
T = Trace of Precipitation, MM = Missing Value Source: Averaged Metar Reports

Daily Weather History Graph

Daily Weather History Graph

Search for Another Location

Airport:

Trip Planner

Search our weather history database for the weather conditions in past years. The results will help you decide how hot, cold, wet, or windy it might be!

Date:

Astronomy

Dec. 05, 2013 Rise Set
Actual Time 5:12 AM SAST 7:30 PM SAST
Civil Twilight 4:43 AM SAST 7:59 PM SAST
Nautical Twilight 4:07 AM SAST 8:34 PM SAST
Astronomical Twilight 3:29 AM SAST 9:13 PM SAST
Moon 7:43 AM SAST (12/5) 9:52 PM SAST (12/5)
Length of Visible Light 15h 16m
Length of Day
14h 18m
Waxing Crescent, 8% of the Moon is Illuminated
Dec 5
Waxing Crescent
Dec 9
First Quarter
Dec 17
Full
Dec 25
Last Quarter
Jan 1
New

Hourly Weather History & Observations

Time (SAST) Temp. Dew Point Humidity Pressure Visibility Wind Dir Wind Speed Gust Speed Precip Events Conditions
12:00 AM 59.0 °F 51.8 °F 77% 30.27 in 6.2 mi WNW 5.8 mph - N/A Rain Light Rain
1:00 AM 59.0 °F 50.0 °F 72% 30.27 in 6.2 mi WNW 4.6 mph - N/A   Overcast
2:00 AM 58 °F 51 °F 70% 30.26 in 6 mi WNW 4.6 mph - -  
2:00 AM 59.0 °F 51.8 °F 77% 30.24 in 6.2 mi NW 5.8 mph - N/A   Overcast
3:00 AM 57.2 °F 50.0 °F 77% 30.24 in 6.2 mi NW 3.5 mph - N/A   Overcast
4:00 AM 57.2 °F 50.0 °F 77% 30.24 in 6.2 mi WNW 4.6 mph - N/A   Overcast
5:00 AM 58 °F 49 °F 65% 30.25 in 12 mi NW 5.8 mph - -   Overcast
5:00 AM 57.2 °F 50.0 °F 77% 30.24 in 6.2 mi NW 5.8 mph - N/A   Mostly Cloudy
6:00 AM 57.2 °F 50.0 °F 77% 30.24 in 6.2 mi NNW 3.5 mph - N/A   Mostly Cloudy
7:00 AM 59.0 °F 48.2 °F 67% 30.24 in 6.2 mi NNW 3.5 mph - N/A   Mostly Cloudy
8:00 AM 62 °F 46 °F 44% 30.25 in 12 mi NNW 6.9 mph - -   Partly Cloudy
8:00 AM 62.6 °F 44.6 °F 52% 30.24 in 6.2 mi NNW 6.9 mph - N/A   Scattered Clouds
9:00 AM 64.4 °F 44.6 °F 49% 30.24 in 6.2 mi WSW 4.6 mph - N/A   Scattered Clouds
10:00 AM 64.4 °F 46.4 °F 52% 30.21 in 6.2 mi South 9.2 mph - N/A   Scattered Clouds
11:00 AM 66 °F 46 °F 37% 30.22 in 12 mi South 9.2 mph - -   Partly Cloudy
11:00 AM 66.2 °F 48.2 °F 52% 30.21 in 6.2 mi South 9.2 mph - N/A   Scattered Clouds
12:00 PM 68.0 °F 50.0 °F 52% 30.21 in 6.2 mi South 9.2 mph - N/A   Scattered Clouds
1:00 PM 66.2 °F 50.0 °F 56% 30.21 in 6.2 mi South 10.4 mph - N/A   Scattered Clouds
2:00 PM 65 °F 52 °F 52% 30.22 in 12 mi SSE 12.7 mph - -   Partly Cloudy
2:00 PM 64.4 °F 51.8 °F 64% 30.21 in 6.2 mi SSE 12.7 mph - N/A   Scattered Clouds
3:00 PM 64.4 °F 51.8 °F 64% 30.21 in 6.2 mi SSE 10.4 mph - N/A   Scattered Clouds
4:00 PM 64.4 °F 50.0 °F 59% 30.18 in 6.2 mi SSE 10.4 mph - N/A   Scattered Clouds
5:00 PM 63 °F 50 °F 54% 30.20 in 12 mi South 8.1 mph - -   Mostly Cloudy
5:00 PM 62.6 °F 50.0 °F 63% 30.18 in 6.2 mi South 8.1 mph - N/A   Scattered Clouds
6:00 PM 60.8 °F 50.0 °F 68% 30.18 in 6.2 mi South 9.2 mph - N/A   Scattered Clouds
7:00 PM 60.8 °F 50.0 °F 68% 30.21 in 6.2 mi South 5.8 mph - N/A   Mostly Cloudy
8:00 PM 60 °F 49 °F 58% 30.23 in 12 mi South 2.3 mph - -   Partly Cloudy
8:00 PM 59.0 °F 50.0 °F 72% 30.21 in 6.2 mi Variable 1.2 mph - N/A   Scattered Clouds
9:00 PM 59.0 °F 50.0 °F 72% 30.24 in 6.2 mi Calm Calm - N/A   Partly Cloudy
10:00 PM 57.2 °F 50.0 °F 77% 30.24 in 6.2 mi North 3.5 mph - N/A   Partly Cloudy
11:00 PM 55.4 °F 50.0 °F 82% 30.24 in - North 1.2 mph - N/A   Clear